Hourly Weather Midlothian

Today, 9 August, Sunday

Time Temperature Precipitation Wind Pressure Humidity
00:00 +9°C° 0 mm 1 mps 745 mmHg 89%
01:00 +9°C° 0 mm 1 mps 745 mmHg 90%
02:00 +9°C° 0 mm 1 mps 745 mmHg 91%
03:00 +9°C° 0 mm 1 mps 745 mmHg 92%
04:00 +8°C° 0 mm 2 mps 744 mmHg 92%
05:00 +9°C° 0 mm 2 mps 744 mmHg 92%
06:00 +9°C° 0 mm 2 mps 744 mmHg 92%
07:00 +11°C° 0 mm 3 mps 744 mmHg 87%
08:00 +12°C° 0 mm 3 mps 744 mmHg 82%
09:00 +14°C° 0 mm 4 mps 744 mmHg 76%
10:00 +15°C° 0 mm 4 mps 744 mmHg 75%
11:00 +15°C° 0 mm 4 mps 744 mmHg 73%
12:00 +17°C° 0 mm 4 mps 744 mmHg 71%
13:00 +17°C° 0 mm 4 mps 744 mmHg 71%
14:00 +16°C° 0 mm 5 mps 743 mmHg 72%
15:00 +16°C° 0 mm 5 mps 743 mmHg 72%
16:00 +15°C° 0 mm 5 mps 743 mmHg 75%
17:00 +14°C° 0 mm 4 mps 743 mmHg 78%
18:00 +14°C° 0 mm 4 mps 742 mmHg 81%
19:00 +13°C° 0 mm 4 mps 742 mmHg 85%
20:00 +12°C° 0 mm 3 mps 742 mmHg 89%
21:00 +11°C° 0 mm 3 mps 742 mmHg 93%
22:00 +11°C° 0 mm 3 mps 742 mmHg 94%
23:00 +11°C° 0 mm 3 mps 742 mmHg 94%

Tomorrow, 10 August, Monday

Time Temperature Precipitation Wind Pressure Humidity
00:00 +11°C° 0 mm 3 mps 742 mmHg 94%
01:00 +11°C° 0 mm 3 mps 742 mmHg 94%
02:00 +11°C° 0 mm 3 mps 741 mmHg 95%
03:00 +10°C° 0 mm 3 mps 741 mmHg 96%
04:00 +11°C° 0 mm 3 mps 741 mmHg 96%
05:00 +11°C° 0 mm 3 mps 741 mmHg 95%
06:00 +11°C° 0 mm 3 mps 740 mmHg 95%
07:00 +12°C° 0 mm 3 mps 740 mmHg 91%
08:00 +13°C° 0 mm 4 mps 740 mmHg 88%
09:00 +14°C° 0 mm 4 mps 741 mmHg 84%
10:00 +15°C° 0.1 mm 4 mps 740 mmHg 83%
11:00 +15°C° 0.1 mm 4 mps 740 mmHg 82%
12:00 +17°C° 0.1 mm 4 mps 740 mmHg 82%
13:00 +15°C° 0.4 mm 4 mps 740 mmHg 85%
14:00 +15°C° 0.4 mm 4 mps 740 mmHg 88%
15:00 +14°C° 0.4 mm 4 mps 740 mmHg 92%
16:00 +14°C° 0.5 mm 3 mps 740 mmHg 93%
17:00 +14°C° 0.5 mm 3 mps 739 mmHg 94%
18:00 +14°C° 0.5 mm 2 mps 739 mmHg 95%
19:00 +14°C° 0.3 mm 2 mps 739 mmHg 95%
20:00 +13°C° 0.3 mm 2 mps 740 mmHg 96%
21:00 +13°C° 0.3 mm 2 mps 740 mmHg 96%
22:00 +13°C° 0.3 mm 2 mps 740 mmHg 96%
23:00 +13°C° 0.3 mm 2 mps 739 mmHg 96%

Day after tomorrow, 11 August, Tuesday

Time Temperature Precipitation Wind Pressure Humidity
00:00 +13°C° 0.3 mm 2 mps 739 mmHg 96%
01:00 +13°C° 0.2 mm 2 mps 739 mmHg 96%
02:00 +13°C° 0.2 mm 2 mps 739 mmHg 96%
03:00 +14°C° 0.2 mm 1 mps 739 mmHg 96%
04:00 +14°C° 0.6 mm 1 mps 739 mmHg 97%
05:00 +14°C° 0.6 mm 1 mps 739 mmHg 97%
06:00 +14°C° 0.6 mm 1 mps 738 mmHg 97%
07:00 +15°C° 0.5 mm 2 mps 739 mmHg 96%
08:00 +16°C° 0.5 mm 2 mps 739 mmHg 95%
09:00 +17°C° 0.5 mm 2 mps 739 mmHg 94%
10:00 +17°C° 0.2 mm 2 mps 739 mmHg 93%
11:00 +18°C° 0.2 mm 2 mps 739 mmHg 92%
12:00 +18°C° 0.2 mm 2 mps 739 mmHg 91%
13:00 +19°C° 0.1 mm 1 mps 738 mmHg 90%
14:00 +20°C° 0.1 mm 1 mps 738 mmHg 89%
15:00 +20°C° 0.1 mm 1 mps 738 mmHg 88%
16:00 +20°C° 0.1 mm 1 mps 738 mmHg 89%
17:00 +20°C° 0.1 mm 1 mps 738 mmHg 90%
18:00 +18°C° 0.1 mm 0 mps 738 mmHg 91%
19:00 +17°C° 0.1 mm 0 mps 738 mmHg 92%
20:00 +17°C° 0.1 mm 0 mps 738 mmHg 94%
21:00 +16°C° 0.1 mm 0 mps 738 mmHg 95%
22:00 +16°C° 0.1 mm 0 mps 738 mmHg 95%
23:00 +15°C° 0.1 mm 0 mps 738 mmHg 96%

12 August, Wednesday

Time Temperature Precipitation Wind Pressure Humidity
00:00 +15°C° 0.1 mm 0 mps 738 mmHg 96%
01:00 +15°C° 0.1 mm 0 mps 738 mmHg 96%
02:00 +15°C° 0.1 mm 0 mps 737 mmHg 96%
03:00 +15°C° 0.1 mm 0 mps 737 mmHg 96%
04:00 +15°C° 0 mm 0 mps 737 mmHg 96%
05:00 +15°C° 0 mm 0 mps 737 mmHg 96%
06:00 +16°C° 0 mm 0 mps 737 mmHg 95%
07:00 +16°C° 0 mm 0 mps 737 mmHg 93%
08:00 +17°C° 0 mm 0 mps 737 mmHg 91%
09:00 +20°C° 0 mm 1 mps 737 mmHg 89%
10:00 +21°C° 0 mm 1 mps 737 mmHg 87%
11:00 +21°C° 0 mm 1 mps 737 mmHg 86%
12:00 +22°C° 0 mm 1 mps 737 mmHg 84%
13:00 +21°C° 0 mm 2 mps 737 mmHg 84%
14:00 +21°C° 0 mm 2 mps 737 mmHg 84%
15:00 +21°C° 0 mm 3 mps 737 mmHg 84%
16:00 +20°C° 0 mm 3 mps 736 mmHg 86%
17:00 +20°C° 0 mm 3 mps 736 mmHg 87%
18:00 +19°C° 0 mm 3 mps 736 mmHg 89%
19:00 +18°C° 0 mm 3 mps 736 mmHg 92%
20:00 +17°C° 0 mm 3 mps 736 mmHg 94%
21:00 +16°C° 0 mm 3 mps 736 mmHg 97%
22:00 +15°C° 0.5 mm 4 mps 736 mmHg 97%
23:00 +15°C° 0.5 mm 4 mps 736 mmHg 96%

13 August, Thursday

Time Temperature Precipitation Wind Pressure Humidity
00:00 +14°C° 0.5 mm 5 mps 735 mmHg 96%
01:00 +14°C° 1.2 mm 6 mps 735 mmHg 96%
02:00 +14°C° 1.2 mm 6 mps 735 mmHg 96%
03:00 +14°C° 1.2 mm 7 mps 734 mmHg 97%
04:00 +14°C° 0.3 mm 7 mps 734 mmHg 96%
05:00 +14°C° 0.3 mm 7 mps 734 mmHg 96%
06:00 +14°C° 0.3 mm 7 mps 734 mmHg 96%
07:00 +14°C° 0.2 mm 6 mps 734 mmHg 96%
08:00 +14°C° 0.2 mm 6 mps 735 mmHg 96%
09:00 +14°C° 0.2 mm 5 mps 735 mmHg 96%
10:00 +14°C° 0.3 mm 5 mps 735 mmHg 95%
11:00 +14°C° 0.3 mm 5 mps 735 mmHg 95%
12:00 +14°C° 0.3 mm 5 mps 735 mmHg 95%
13:00 +15°C° 0.2 mm 5 mps 735 mmHg 95%
14:00 +15°C° 0.2 mm 5 mps 735 mmHg 94%
15:00 +15°C° 0.2 mm 5 mps 735 mmHg 94%
16:00 +15°C° 0 mm 5 mps 735 mmHg 94%
17:00 +15°C° 0 mm 5 mps 735 mmHg 94%
18:00 +15°C° 0 mm 5 mps 735 mmHg 93%
19:00 +14°C° 0 mm 5 mps 735 mmHg 94%
20:00 +14°C° 0 mm 5 mps 735 mmHg 94%
21:00 +14°C° 0 mm 5 mps 735 mmHg 95%
22:00 +14°C° 0 mm 4 mps 735 mmHg 95%
23:00 +14°C° 0 mm 4 mps 735 mmHg 95%

14 August, Friday

Time Temperature Precipitation Wind Pressure Humidity
00:00 +14°C° 0 mm 3 mps 735 mmHg 95%
01:00 +14°C° 0.1 mm 3 mps 735 mmHg 95%
02:00 +14°C° 0.1 mm 3 mps 735 mmHg 96%
03:00 +13°C° 0.1 mm 3 mps 735 mmHg 96%
04:00 +13°C° 0.1 mm 3 mps 735 mmHg 96%
05:00 +13°C° 0.1 mm 3 mps 735 mmHg 96%
06:00 +14°C° 0.1 mm 2 mps 735 mmHg 96%
07:00 +15°C° 0.1 mm 2 mps 735 mmHg 95%
08:00 +15°C° 0.1 mm 2 mps 735 mmHg 95%
09:00 +15°C° 0.1 mm 2 mps 736 mmHg 94%
10:00 +16°C° 0.1 mm 2 mps 736 mmHg 92%
11:00 +16°C° 0.1 mm 2 mps 736 mmHg 90%
12:00 +17°C° 0.1 mm 2 mps 736 mmHg 88%
13:00 +17°C° 0 mm 2 mps 736 mmHg 88%
14:00 +17°C° 0 mm 2 mps 736 mmHg 87%
15:00 +17°C° 0 mm 2 mps 736 mmHg 87%
16:00 +17°C° 0.1 mm 2 mps 736 mmHg 88%
17:00 +18°C° 0.1 mm 1 mps 736 mmHg 90%
18:00 +16°C° 0.1 mm 1 mps 736 mmHg 91%
19:00 +16°C° 0.1 mm 1 mps 737 mmHg 93%
20:00 +15°C° 0.1 mm 1 mps 737 mmHg 94%
21:00 +15°C° 0.1 mm 1 mps 737 mmHg 96%
22:00 +15°C° 0 mm 1 mps 737 mmHg 96%
23:00 +14°C° 0 mm 1 mps 737 mmHg 96%
Show more